Location: Grantsboro
(35.1404°N, 76.8424°W)
Time: 21:14:09
(UTC+00:00)

SL-4 R/B - Pass Details

Date: 18 January 2020
Orbit: 428 x 666 km, 51.6° (Epoch: 17 February)

Event Time Altitude Azimuth Distance (km) Brightness Sun altitude
Exits shadow 11:13:48 - 341° (NNW) 1,805 4.3 -12.4°
Reaches altitude 10° 11:14:43 10° 352° (N) 1,575 4.1 -12.3°
Maximum altitude 11:16:36 14° 25° (NNE) 1,340 4.1 -11.9°
Drops below altitude 10° 11:18:28 10° 58° (ENE) 1,538 4.9 -11.5°
Sets 11:21:22 0° 86° (E) 2,388 6.7 -11.0°
